Time,TemperatureF,DewpointF,PressureIn,WindDirection,WindDirectionDegrees,WindSpeedMPH,WindSpeedGustMPH,Humidity,HourlyPrecipIn,Conditions,Clouds,dailyrainin,SolarRadiationWatts/m^2,SoftwareType,DateUTC
2017-07-21 00:04:00,66.5,62.2,29.97,NW,320,0.0,0.0,86,0.00,CLR,SKC,0.00,0.0,WeatherDisplay:10.37,2017-07-21 07:04:00,
2017-07-21 00:09:00,66.4,61.8,29.97,NW,320,0.0,0.0,85,0.00,CLR,SKC,0.00,0.0,WeatherDisplay:10.37,2017-07-21 07:09:00,
2017-07-21 00:14:00,66.3,61.7,29.97,NW,320,0.0,0.0,85,0.00,CLR,SKC,0.00,0.0,WeatherDisplay:10.37,2017-07-21 07:14:00,
2017-07-21 00:19:00,66.2,61.6,29.97,NW,320,0.0,0.0,85,0.00,CLR,SKC,0.00,0.0,WeatherDisplay:10.37,2017-07-21 07:19:00,
2017-07-21 00:24:00,66.1,61.5,29.97,NW,320,0.0,0.0,85,0.00,CLR,SKC,0.00,0.0,WeatherDisplay:10.37,2017-07-21 07:24:00,
2017-07-21 00:29:00,65.9,61.3,29.96,NW,320,0.0,0.0,85,0.00,CLR,SKC,0.00,0.0,WeatherDisplay:10.37,2017-07-21 07:29:00,
2017-07-21 00:34:00,65.8,61.2,29.96,NW,320,0.0,0.0,85,0.00,CLR,SKC,0.00,0.0,WeatherDisplay:10.37,2017-07-21 07:34:00,
2017-07-21 00:39:00,65.8,61.5,29.96,NW,320,0.0,0.0,86,0.00,CLR,SKC,0.00,0.0,WeatherDisplay:10.37,2017-07-21 07:39:00,
2017-07-21 00:44:00,65.6,61.3,29.96,NW,320,0.0,0.0,86,0.00,CLR,SKC,0.00,0.0,WeatherDisplay:10.37,2017-07-21 07:44:00,
2017-07-21 00:49:00,65.6,61.3,29.96,NW,320,0.0,0.0,86,0.00,CLR,SKC,0.00,0.0,WeatherDisplay:10.37,2017-07-21 07:49:00,
2017-07-21 00:54:00,65.4,61.1,29.96,NW,320,0.0,0.0,86,0.00,CLR,SKC,0.00,0.0,WeatherDisplay:10.37,2017-07-21 07:54:00,
2017-07-21 00:59:00,65.4,61.1,29.96,NW,320,0.0,0.0,86,0.00,CLR,SKC,0.00,0.0,WeatherDisplay:10.37,2017-07-21 07:59:00,
2017-07-21 01:04:00,65.2,60.9,29.96,NW,320,0.0,0.0,86,0.00,CLR,SKC,0.00,0.0,WeatherDisplay:10.37,2017-07-21 08:04:00,
2017-07-21 01:09:00,65.1,60.8,29.96,NW,320,0.0,0.0,86,0.00,CLR,SKC,0.00,0.0,WeatherDisplay:10.37,2017-07-21 08:09:00,
2017-07-21 01:14:00,65.0,60.7,29.96,NW,320,0.0,0.0,86,0.00,CLR,SKC,0.00,0.0,WeatherDisplay:10.37,2017-07-21 08:14:00,
2017-07-21 01:19:00,64.9,60.6,29.96,NW,320,0.0,0.0,86,0.00,CLR,SKC,0.00,0.0,WeatherDisplay:10.37,2017-07-21 08:19:00,
2017-07-21 01:24:00,64.9,60.6,29.96,NW,320,0.0,0.0,86,0.00,CLR,SKC,0.00,0.0,WeatherDisplay:10.37,2017-07-21 08:24:00,
2017-07-21 01:29:00,65.0,61.0,29.96,NW,320,0.0,0.0,87,0.00,CLR,SKC,0.00,0.0,WeatherDisplay:10.37,2017-07-21 08:29:00,
2017-07-21 01:34:00,65.0,61.4,29.96,NW,320,0.0,0.0,88,0.00,CLR,SKC,0.00,0.0,WeatherDisplay:10.37,2017-07-21 08:34:00,
2017-07-21 01:39:00,65.1,61.5,29.96,NW,320,0.0,0.0,88,0.00,CLR,SKC,0.00,0.0,WeatherDisplay:10.37,2017-07-21 08:39:00,
2017-07-21 01:44:00,65.0,61.0,29.96,NW,320,0.0,0.0,87,0.00,CLR,SKC,0.00,0.0,WeatherDisplay:10.37,2017-07-21 08:44:00,
2017-07-21 01:49:00,65.0,61.4,29.96,NW,320,0.0,0.0,88,0.00,CLR,SKC,0.00,0.0,WeatherDisplay:10.37,2017-07-21 08:49:00,
2017-07-21 01:54:00,65.1,61.5,29.96,NW,320,0.0,0.0,88,0.00,CLR,SKC,0.00,0.0,WeatherDisplay:10.37,2017-07-21 08:54:00,
2017-07-21 01:59:00,65.2,61.9,29.95,NW,320,0.0,0.0,89,0.00,CLR,SKC,0.00,0.0,WeatherDisplay:10.37,2017-07-21 08:59:00,
2017-07-21 02:04:00,65.2,61.9,29.95,NW,320,0.0,0.0,89,0.00,CLR,SKC,0.00,0.0,WeatherDisplay:10.37,2017-07-21 09:04:00,
2017-07-21 02:09:00,65.5,62.2,29.95,NW,320,0.0,0.0,89,0.00,CLR,SKC,0.00,0.0,WeatherDisplay:10.37,2017-07-21 09:09:00,
2017-07-21 02:14:00,65.6,62.3,29.95,NW,320,0.0,0.0,89,0.00,CLR,SKC,0.00,0.0,WeatherDisplay:10.37,2017-07-21 09:14:00,
2017-07-21 02:19:00,65.8,62.5,29.95,NW,320,0.0,0.0,89,0.00,CLR,SKC,0.00,0.0,WeatherDisplay:10.37,2017-07-21 09:19:00,
2017-07-21 02:24:00,65.9,62.9,29.95,NW,320,0.0,0.0,90,0.00,CLR,SKC,0.00,0.0,WeatherDisplay:10.37,2017-07-21 09:24:00,
2017-07-21 02:29:00,66.0,63.0,29.95,NW,320,0.0,0.0,90,0.00,CLR,SKC,0.00,0.0,WeatherDisplay:10.37,2017-07-21 09:29:00,
2017-07-21 02:34:00,66.1,63.1,29.95,NW,320,0.0,0.0,90,0.00,CLR,SKC,0.00,0.0,WeatherDisplay:10.37,2017-07-21 09:34:00,
2017-07-21 02:39:00,66.2,63.2,29.95,NW,320,0.0,0.0,90,0.00,CLR,SKC,0.00,0.0,WeatherDisplay:10.37,2017-07-21 09:39:00,
2017-07-21 02:40:00,66.2,63.2,29.95,NW,320,0.0,0.0,90,0.00,CLR,SKC,0.00,0.0,WeatherDisplay:10.37,2017-07-21 09:40:00,
2017-07-21 02:45:00,66.3,63.3,29.95,NW,320,0.0,0.0,90,0.00,CLR,SKC,0.00,0.0,WeatherDisplay:10.37,2017-07-21 09:45:00,
2017-07-21 02:50:00,66.4,63.4,29.95,NW,320,0.0,0.0,90,0.00,CLR,SKC,0.00,0.0,WeatherDisplay:10.37,2017-07-21 09:50:00,
2017-07-21 02:55:00,66.5,63.5,29.95,NW,320,0.0,0.0,90,0.00,CLR,SKC,0.00,0.0,WeatherDisplay:10.37,2017-07-21 09:55:00,
2017-07-21 03:00:00,66.6,63.6,29.95,NW,320,0.0,1.2,90,0.00,CLR,SKC,0.00,0.0,WeatherDisplay:10.37,2017-07-21 10:00:00,
2017-07-21 03:05:00,66.7,63.7,29.95,NW,320,0.0,0.0,90,0.00,CLR,SKC,0.00,0.0,WeatherDisplay:10.37,2017-07-21 10:05:00,
2017-07-21 03:10:00,66.7,63.7,29.94,NW,320,0.0,0.0,90,0.00,CLR,SKC,0.00,0.0,WeatherDisplay:10.37,2017-07-21 10:10:00,